星链-4038 (STARLINK-4038 )

导读 | 星芒AI

STARLINK-4038 是 SpaceX Starlink 项目中的一颗低轨道卫星,属于其第二代卫星群(Gen2)。该卫星于2023年发射,旨在为全球提供高速、低延迟的互联网服务。它运行在约550公里高的轨道上,配备先进通信设备,支持更广泛的覆盖和更高的数据传输效率。Starlink 卫星群致力于改善偏远地区的网络接入,推动全球互联网普及。STARLINK-4038 在提升网络性能和系统稳定性方面发挥着重要作用。

基本信息
目录编号:
53150
目录名称:
STARLINK-4038
国际标识:
2022-083U
轨道中心:
EARTH
卫星名称:
星链-4038
卫星全名:
星链-4038 (STARLINK-4038 )
卫星状态:
在轨 (已飞行1206 天)
发射日期:
2022-07-17 UTC
国别 :
美国 (US)
星等 :
--
轨道信息
数据来源 国际轨道数据
星历时间: 2025-11-05T00:00:03+0800
7小时前
查看轨道信息
半长轴: 6904.83km
偏心率: 0.0001366
轨道倾角: 53.216°
近地点辐角 65.625°
升交点赤经 5.300°
平近点角 236.478°
近地点: 525.751km
远地点: 527.639km
周期: 95.168分钟
每日圈数: 15.131199
详细信息
固有亮度:
5
最大亮度:
2.5
卫星平台:
Starlink v1.5
覆盖范围:
全球
运营商:
太空探索技术公司
运营商所在国:
美国
制造商(研发单位):
太空探索技术公司
制造商所在国:
美国
使用方式:
暂无
卫星简介
星链(Starlink)计划是由太空探索技术公司(SpaceX)提出的一个巨型低轨卫星互联网星座项目,计划在2019年至2024年间在太空搭建由约1.2万颗卫星组成的“星链”网络,其中1584颗将部署在地球上空550千米处的近地轨道,并从2020年开始工作。该卫星仍在工作。
2D轨道图
3D轨道图
轨道高度分析图
轨道倾角分析图
轨道综合分析图
查看轨道综合分析图